Location: Roc des P�zouls
(43.9667°N, 3.5500°E)
Time: 07:21:04
(UTC+00:00)

ASTEX 1 - Pass Details

Date: 14 November 2019
Orbit: 721 x 743 km, 92.7° (Epoch: 14 December)

Event Time Altitude Azimuth Distance (km) Brightness Sun altitude
Rises 03:52:25 0° 154° (SSE) 3,144 6.9 -29.9°
Reaches altitude 10° 03:54:47 10° 148° (SSE) 2,231 6.2 -29.5°
Maximum altitude 03:59:27 44° 77° (ENE) 1,020 4.5 -28.7°
Drops below altitude 10° 04:04:10 10° 7° (N) 2,259 6.0 -27.8°
Sets 04:06:33 0° 1° (N) 3,189 6.7 -27.4°
